User: anonymous   Login
Location: Kott?ru
(16.6209°N, 80.6208°E)
Time: 06:13:23
(UTC+00:00)
Language:

Cosmos 2112 Rocket - Orbit

View from above orbital plane
View from above orbital plane
View from above satellite
View from above satellite

Ground track
Ground track

The orbit data is extracted from the following two-line orbital elements,

1 21015U 90111B   20338.73221959 -.00000003  00000-0  78981-5 0  9997
2 21015  74.0505 335.7885 0023088 286.8266 246.6746 14.36019300667540
Epoch (UTC): 03 December 2020 17:34:23
Eccentricity: 0.0023088
inclination: 74.0505°
perigee height: 755 km
apogee height: 788 km
right ascension of ascending node: 335.7885°
argument of perigee: 286.8266°
revolutions per day: 14.36019300
mean anomaly at epoch: 246.6746°
orbit number at epoch: 66754

The dashed part of the orbit path shows where the satellite is in the earth's shadow,  

DLR